Montgomery, NY

4:57 AM EDT on September 22, 2019 (GMT -0400)
Orange County

Weather History for KMGJ - August, 2019

Change the Weather History Date:

Monday, August 19, 2019

  Actual Average (WUND) Record (WUND)
Temperature  
Mean Temperature 76 °F -  
Max Temperature 89 °F - - (-1)
Min Temperature 64 °F - - (-1)
Cooling Degree Days 11    
Growing Degree Days 26 (Base 50)    
Moisture  
Dew Point 67 °F    
Average Humidity 85    
Maximum Humidity 100    
Minimum Humidity 49    
Precipitation  
Precipitation 0.00 in - - ()
Sea Level Pressure  
Sea Level Pressure 29.97 in    
Wind  
Wind Speed 2 mph (WSW)    
Max Wind Speed 9 mph    
Max Gust Speed -    
Visibility 10 miles    
Events      
Averages and records for this station are not official NWS values.
T = Trace of Precipitation, MM = Missing Value Source: NWS Daily Summary

Daily Weather History Graph

Daily Weather History Graph

Search for Another Location

Airport or City:

Astronomy

Aug. 19, 2019 Rise Set
Actual Time 6:09 AM EDT 7:50 PM EDT
Civil Twilight 5:40 AM EDT 8:20 PM EDT
Nautical Twilight 5:04 AM EDT 8:55 PM EDT
Astronomical Twilight 4:26 AM EDT 9:33 PM EDT
Moon 10:08 PM EDT (8/19) 9:50 AM EDT (8/19)
Length of Visible Light 14h 40m
Length of Day
13h 41m
Waning Gibbous, 85% of the Moon is Illuminated
Aug 19
Waning Gibbous
Aug 23
Last Quarter
Aug 30
New
Sep 5
First Quarter
Sep 14
Full

Hourly Weather History & Observations

Time (EDT) Temp. Heat Index Dew Point Humidity Pressure Visibility Wind Dir Wind Speed Gust Speed Precip Events Conditions
12:07 AM 64.0 °F - 64.0 °F 100% 29.96 in 7.0 mi Calm Calm - N/A   Mostly Cloudy
12:42 AM 64.9 °F - 64.9 °F 100% 29.96 in 10.0 mi South 3.5 mph - N/A   Scattered Clouds
12:54 AM 64.9 °F - 64.9 °F 100% 29.96 in 10.0 mi SW 3.5 mph - N/A   Partly Cloudy
1:54 AM 64.9 °F - 64.0 °F 97% 29.95 in 10.0 mi Calm Calm - N/A   Partly Cloudy
2:54 AM 64.9 °F - 64.9 °F 100% 29.96 in 10.0 mi SSW 3.5 mph - N/A   Partly Cloudy
3:12 AM 64.9 °F - 64.9 °F 100% 29.97 in 10.0 mi SSW 4.6 mph - N/A   Mostly Cloudy
3:33 AM 64.0 °F - 64.0 °F 100% 29.97 in 10.0 mi Calm Calm - N/A   Scattered Clouds
3:54 AM 64.9 °F - 64.0 °F 97% 29.98 in 10.0 mi Calm Calm - N/A   Clear
4:10 AM 64.9 °F - 64.0 °F 97% 29.98 in 10.0 mi Calm Calm - N/A   Partly Cloudy
4:54 AM 64.9 °F - 64.9 °F 100% 29.98 in 10.0 mi Calm Calm - N/A   Clear
5:24 AM 64.0 °F - 64.0 °F 100% 29.98 in 10.0 mi Calm Calm - N/A   Partly Cloudy
5:54 AM 64.9 °F - 64.9 °F 100% 29.99 in 10.0 mi Calm Calm - N/A   Scattered Clouds
6:54 AM 64.9 °F - 64.9 °F 100% 29.99 in 10.0 mi Calm Calm - N/A   Partly Cloudy
7:54 AM 68.0 °F - 66.9 °F 96% 29.99 in 10.0 mi SSE 3.5 mph - N/A   Clear
8:34 AM 70.0 °F - 68.0 °F 93% 30.00 in 10.0 mi Calm Calm - N/A   Partly Cloudy
8:54 AM 71.1 °F - 69.1 °F 93% 29.99 in 10.0 mi Variable 4.6 mph - N/A   Clear
9:54 AM 75.9 °F - 70.0 °F 82% 29.98 in 10.0 mi SSW 4.6 mph - N/A   Clear
10:54 AM 79.0 °F - 72.0 °F 79% 29.97 in 10.0 mi SSW 6.9 mph - N/A   Clear
11:54 AM 82.0 °F 86.7 °F 72.0 °F 71% 29.96 in 10.0 mi SSW 6.9 mph - N/A   Clear
12:54 PM 86.0 °F 92.2 °F 72.0 °F 63% 29.97 in 10.0 mi SW 8.1 mph - N/A   Clear
1:54 PM 88.0 °F 91.4 °F 68.0 °F 51% 29.96 in 10.0 mi NW 6.9 mph - N/A   Clear
2:54 PM 88.0 °F 90.7 °F 66.9 °F 49% 29.95 in 10.0 mi West 6.9 mph - N/A   Partly Cloudy
3:54 PM 87.1 °F 89.2 °F 66.0 °F 49% 29.95 in 10.0 mi WNW 8.1 mph - N/A   Clear
4:54 PM 86.0 °F 88.2 °F 66.0 °F 51% 29.92 in 10.0 mi WNW 6.9 mph - N/A   Clear
5:54 PM 84.9 °F 87.6 °F 66.9 °F 55% 29.94 in 10.0 mi NW 9.2 mph - N/A   Partly Cloudy
6:54 PM 82.9 °F 85.8 °F 68.0 °F 60% 29.96 in 10.0 mi West 3.5 mph - N/A   Clear
7:54 PM 75.0 °F - 70.0 °F 84% 29.97 in 10.0 mi Calm Calm - N/A   Clear
8:54 PM 75.0 °F - 68.0 °F 79% 29.99 in 10.0 mi WNW 3.5 mph - N/A   Clear
9:54 PM 71.1 °F - 68.0 °F 90% 30.00 in 10.0 mi South 3.5 mph - N/A   Clear
10:54 PM 69.1 °F - 68.0 °F 96% 30.01 in 10.0 mi Calm Calm - N/A   Clear
11:54 PM 68.0 °F - 66.9 °F 96% 30.02 in 10.0 mi Calm Calm - N/A   Clear